STARLINK-1619

decayed
NORAD ID: 46126 Int'l Des: 2020-057 Owner: SPXS Country: US Constellation: starlink
LEOCIRCULAR

关于 STARLINK-1619

正在加载描述...

高度历史

Altitude vs Time

uPlot chart will show altitude changes over time

两行轨道根数

1 46126U 20057K 25102.97730672 .15947395 12491-4 73487-3 0 9990
2 46126 53.0136 280.0706 0008434 292.3288 155.1847 16.42632463258020
Epoch: Apr 12, 2025 • Age: 3742 hours

当前状态

Position data unavailable
发射日期 Aug 18, 2020
运行时间 5 years
衰减日期 Apr 13, 2025
类型 internet

技术详情

分类 Payload
质量 260.00 kg
干质量 248.00 kg
总质量 260.00 kg
长度 0.20 m
直径 2.80 m
跨度 9.00 m
形状 Box + pan
制造商 SPXS
平台类型 Starlink
阶段状态 Unknown Transfer Status
所有者/国家 SPXS/US

大型星座

Loading constellations...